User: anonymous   Login
Location: Ladysmith
(45.4630°N, 91.1040°W)
Time: 02:20:48
(UTC-06:00)
Language:

SO-67 - Orbit

View from above orbital plane
View from above orbital plane
View from above satellite
View from above satellite

Ground track
Ground track

The orbit data is extracted from the following two-line orbital elements,

1 35870U 09049F   15026.91303575  .00009170  00000-0  24723-3 0  9192
2 35870 097.1454 046.5841 0002979 050.4876 047.7729 15.38016265298372
Epoch (UTC): 26 January 2015 21:54:46
Eccentricity: 0.0002979
inclination: 97.1454°
perigee height: 450 km
apogee height: 454 km
right ascension of ascending node: 46.5841°
argument of perigee: 50.4876°
revolutions per day: 15.38016265
mean anomaly at epoch: 47.7729°
orbit number at epoch: 29837

The dashed part of the orbit path shows where the satellite is in the earth's shadow,  

DLR